When you browse on this site, cookies collect data to enhance your experience and personalize the content and advertising you see.
Visit our Privacy Policy to learn more. By continuing to use the site, you agree to this use of cookies and data.
  • In Austria
  • List of Countries
  • For 7 days
  • Water Temperature
  • Weather Map
  • News
  • Weather Widgets
  • user-avatar
    Login

    Hourly Weather Burg bei Magdeburg

    Today, 26 May, Tuesday

    Time Temperature Precipitation Wind Pressure Humidity
    00:00 +9°C° 0 mm 3 mps 770 mmHg 94%
    01:00 +8°C° 0 mm 2 mps 770 mmHg 98%
    02:00 +8°C° 0 mm 2 mps 770 mmHg 98%
    03:00 +8°C° 0 mm 2 mps 770 mmHg 98%
    04:00 +8°C° 0 mm 2 mps 770 mmHg 98%
    05:00 +9°C° 0 mm 2 mps 771 mmHg 95%
    06:00 +10°C° 0 mm 2 mps 771 mmHg 93%
    07:00 +12°C° 0 mm 2 mps 771 mmHg 93%
    08:00 +13°C° 0 mm 2 mps 771 mmHg 85%
    09:00 +15°C° 0 mm 1 mps 771 mmHg 78%
    10:00 +16°C° 0 mm 1 mps 771 mmHg 70%
    11:00 +17°C° 0.2 mm 2 mps 771 mmHg 69%
    12:00 +18°C° 0.2 mm 2 mps 771 mmHg 67%
    13:00 +19°C° 0.2 mm 2 mps 771 mmHg 66%
    14:00 +18°C° 0.5 mm 2 mps 771 mmHg 69%
    15:00 +18°C° 0.5 mm 2 mps 771 mmHg 72%
    16:00 +18°C° 0.5 mm 2 mps 770 mmHg 76%
    17:00 +17°C° 0.1 mm 2 mps 770 mmHg 78%
    18:00 +18°C° 0.1 mm 1 mps 770 mmHg 81%
    19:00 +16°C° 0.1 mm 1 mps 770 mmHg 83%
    20:00 +15°C° 0 mm 1 mps 771 mmHg 85%
    21:00 +14°C° 0 mm 1 mps 771 mmHg 87%
    22:00 +12°C° 0 mm 1 mps 771 mmHg 90%
    23:00 +12°C° 0 mm 1 mps 771 mmHg 90%

    Tomorrow, 27 May, Wednesday

    Time Temperature Precipitation Wind Pressure Humidity
    00:00 +11°C° 0 mm 0 mps 771 mmHg 91%
    01:00 +10°C° 0 mm 0 mps 771 mmHg 92%
    02:00 +11°C° 0 mm 1 mps 771 mmHg 92%
    03:00 +11°C° 0 mm 1 mps 771 mmHg 93%
    04:00 +11°C° 0 mm 1 mps 770 mmHg 94%
    05:00 +12°C° 0 mm 1 mps 770 mmHg 91%
    06:00 +13°C° 0 mm 1 mps 770 mmHg 89%
    07:00 +15°C° 0 mm 1 mps 770 mmHg 87%
    08:00 +16°C° 0.1 mm 2 mps 770 mmHg 81%
    09:00 +18°C° 0.1 mm 2 mps 770 mmHg 75%
    10:00 +19°C° 0.1 mm 3 mps 770 mmHg 69%
    11:00 +20°C° 0.1 mm 3 mps 769 mmHg 63%
    12:00 +21°C° 0.1 mm 3 mps 769 mmHg 58%
    13:00 +21°C° 0.1 mm 4 mps 769 mmHg 52%
    14:00 +21°C° 0 mm 4 mps 768 mmHg 51%
    15:00 +21°C° 0 mm 4 mps 768 mmHg 50%
    16:00 +21°C° 0 mm 3 mps 768 mmHg 48%
    17:00 +20°C° 0 mm 3 mps 768 mmHg 58%
    18:00 +18°C° 0 mm 4 mps 768 mmHg 68%
    19:00 +17°C° 0 mm 4 mps 768 mmHg 78%
    20:00 +14°C° 0 mm 4 mps 768 mmHg 79%
    21:00 +13°C° 0 mm 4 mps 769 mmHg 79%
    22:00 +12°C° 0 mm 4 mps 769 mmHg 80%
    23:00 +11°C° 0 mm 3 mps 769 mmHg 79%

    Day after tomorrow, 28 May, Thursday

    Time Temperature Precipitation Wind Pressure Humidity
    00:00 +11°C° 0 mm 3 mps 769 mmHg 78%
    01:00 +12°C° 0 mm 2 mps 770 mmHg 77%
    02:00 +9°C° 0 mm 2 mps 769 mmHg 82%
    03:00 +8°C° 0 mm 3 mps 769 mmHg 87%
    04:00 +7°C° 0 mm 3 mps 769 mmHg 93%
    05:00 +8°C° 0 mm 3 mps 769 mmHg 87%
    06:00 +8°C° 0 mm 4 mps 769 mmHg 81%
    07:00 +10°C° 0 mm 4 mps 769 mmHg 75%
    08:00 +11°C° 0 mm 4 mps 769 mmHg 70%
    09:00 +13°C° 0 mm 4 mps 769 mmHg 65%
    10:00 +14°C° 0 mm 4 mps 769 mmHg 59%
    11:00 +15°C° 0 mm 4 mps 769 mmHg 55%
    12:00 +17°C° 0 mm 4 mps 768 mmHg 52%
    13:00 +18°C° 0 mm 4 mps 768 mmHg 48%
    14:00 +18°C° 0 mm 4 mps 768 mmHg 49%
    15:00 +19°C° 0 mm 4 mps 767 mmHg 50%
    16:00 +19°C° 0 mm 4 mps 767 mmHg 51%
    17:00 +18°C° 0 mm 3 mps 767 mmHg 57%
    18:00 +17°C° 0 mm 3 mps 767 mmHg 63%
    19:00 +16°C° 0 mm 2 mps 767 mmHg 68%
    20:00 +14°C° 0 mm 2 mps 767 mmHg 72%
    21:00 +12°C° 0 mm 2 mps 767 mmHg 75%
    22:00 +9°C° 0 mm 2 mps 767 mmHg 78%
    23:00 +8°C° 0 mm 2 mps 767 mmHg 80%

    29 May, Friday

    Time Temperature Precipitation Wind Pressure Humidity
    00:00 +8°C° 0 mm 2 mps 767 mmHg 81%
    01:00 +9°C° 0 mm 1 mps 767 mmHg 83%
    02:00 +8°C° 0 mm 1 mps 767 mmHg 86%
    03:00 +8°C° 0 mm 1 mps 767 mmHg 89%
    04:00 +8°C° 0 mm 1 mps 767 mmHg 93%
    05:00 +8°C° 0 mm 2 mps 767 mmHg 88%
    06:00 +9°C° 0 mm 2 mps 767 mmHg 84%
    07:00 +12°C° 0 mm 2 mps 767 mmHg 80%
    08:00 +13°C° 0 mm 2 mps 767 mmHg 73%
    09:00 +15°C° 0 mm 2 mps 767 mmHg 67%
    10:00 +16°C° 0 mm 2 mps 766 mmHg 60%
    11:00 +17°C° 0 mm 2 mps 766 mmHg 57%
    12:00 +17°C° 0 mm 2 mps 766 mmHg 55%
    13:00 +18°C° 0 mm 2 mps 765 mmHg 52%
    14:00 +18°C° 0 mm 2 mps 765 mmHg 51%
    15:00 +18°C° 0 mm 2 mps 765 mmHg 50%
    16:00 +18°C° 0 mm 2 mps 765 mmHg 50%
    17:00 +18°C° 0 mm 2 mps 765 mmHg 56%
    18:00 +17°C° 0 mm 2 mps 765 mmHg 62%
    19:00 +16°C° 0 mm 1 mps 765 mmHg 68%
    20:00 +14°C° 0 mm 1 mps 765 mmHg 72%
    21:00 +13°C° 0 mm 1 mps 765 mmHg 77%
    22:00 +11°C° 0 mm 1 mps 765 mmHg 82%
    23:00 +10°C° 0 mm 1 mps 765 mmHg 85%

    30 May, Saturday

    Time Temperature Precipitation Wind Pressure Humidity
    00:00 +10°C° 0 mm 1 mps 765 mmHg 87%
    01:00 +10°C° 0 mm 1 mps 765 mmHg 90%
    02:00 +10°C° 0 mm 1 mps 765 mmHg 89%
    03:00 +9°C° 0 mm 0 mps 765 mmHg 89%
    04:00 +9°C° 0 mm 0 mps 765 mmHg 88%
    05:00 +10°C° 0 mm 0 mps 765 mmHg 83%
    06:00 +12°C° 0 mm 1 mps 765 mmHg 79%
    07:00 +13°C° 0 mm 1 mps 765 mmHg 74%
    08:00 +15°C° 0 mm 1 mps 765 mmHg 66%
    09:00 +16°C° 0 mm 1 mps 764 mmHg 59%
    10:00 +18°C° 0 mm 2 mps 764 mmHg 52%
    11:00 +19°C° 0 mm 2 mps 764 mmHg 48%
    12:00 +19°C° 0 mm 2 mps 764 mmHg 45%
    13:00 +20°C° 0 mm 2 mps 764 mmHg 42%
    14:00 +19°C° 0 mm 3 mps 763 mmHg 50%
    15:00 +18°C° 0 mm 3 mps 763 mmHg 57%
    16:00 +17°C° 0 mm 3 mps 763 mmHg 65%
    17:00 +16°C° 0.1 mm 3 mps 763 mmHg 70%
    18:00 +16°C° 0.1 mm 3 mps 763 mmHg 75%
    19:00 +15°C° 0.1 mm 2 mps 763 mmHg 79%
    20:00 +13°C° 0 mm 2 mps 763 mmHg 82%
    21:00 +12°C° 0 mm 2 mps 763 mmHg 84%
    22:00 +9°C° 0 mm 2 mps 763 mmHg 86%
    23:00 +8°C° 0 mm 2 mps 763 mmHg 87%

    31 May, Sunday

    Time Temperature Precipitation Wind Pressure Humidity
    00:00 +7°C° 0 mm 2 mps 763 mmHg 88%
    01:00 +6°C° 0 mm 2 mps 763 mmHg 89%
    02:00 +6°C° 0 mm 2 mps 763 mmHg 89%
    03:00 +6°C° 0 mm 1 mps 763 mmHg 89%
    04:00 +6°C° 0 mm 1 mps 763 mmHg 89%
    05:00 +7°C° 0 mm 2 mps 763 mmHg 83%
    06:00 +9°C° 0 mm 2 mps 763 mmHg 77%
    07:00 +10°C° 0 mm 2 mps 763 mmHg 71%
    08:00 +13°C° 0 mm 2 mps 763 mmHg 64%
    09:00 +14°C° 0 mm 3 mps 763 mmHg 58%
    10:00 +17°C° 0 mm 3 mps 763 mmHg 51%
    11:00 +18°C° 0 mm 4 mps 762 mmHg 50%
    12:00 +19°C° 0 mm 4 mps 762 mmHg 49%
    13:00 +20°C° 0 mm 4 mps 762 mmHg 48%
    14:00 +20°C° 0 mm 4 mps 761 mmHg 49%
    15:00 +20°C° 0 mm 5 mps 761 mmHg 49%
    16:00 +20°C° 0 mm 5 mps 761 mmHg 50%
    17:00 +19°C° 0 mm 4 mps 761 mmHg 55%
    18:00 +18°C° 0 mm 4 mps 761 mmHg 60%
    19:00 +16°C° 0 mm 3 mps 761 mmHg 64%
    20:00 +14°C° 0 mm 3 mps 761 mmHg 69%
    21:00 +13°C° 0 mm 2 mps 761 mmHg 73%
    22:00 +12°C° 0 mm 2 mps 761 mmHg 77%
    23:00 +12°C° 0 mm 2 mps 761 mmHg 79%
    Show more